Vertical_Velocity
2 1 -1 -0 -2 -1 1 -1 3 0 -0 2 -0 3 -0 -2 -0 -0 1 0 0 -0 -1 -1 -1 -2 -2 -3 -3 -2 -4 -1 -4 -5 -7 -7 -3 -2 0 -0 -3 -3 -3
3 2 -1 0 -3 -0 -1 1 5 3 3 2 1 1 -1 -0 0 0 -0 -1 1 -1 -2 -1 -2 -1 -0 0 -1 -3 -4 -1 -0 -1 -1 -6 -11 -1 -8 -4 -4 -2 -4
-3 2 -1 1 -2 -1 -0 0 1 2 1 1 -1 -2 -2 -2 -2 -0 -1 -2 0 -1 -1 -2 -1 -1 -1 -2 -2 -0 -2 -4 1 4 -1 -3 -3 -11 -2 -8 -6 -2 -8
8 5 2 -0 -2 1 1 3 3 4 3 -1 -0 0 -1 -4 -1 1 -0 1 -0 -1 -1 -1 -2 -2 -2 -2 -1 0 -0 -2 -3 -1 3 8 10 -2 -10 -10 -15 -0 -1
-0 0 1 -0 -1 0 -0 -0 1 2 -0 -0 1 -2 -2 0 -0 -2 -1 0 -0 -1 -1 -2 -2 -1 -1 -1 -0 -1 -1 -0 -1 -2 -6 -2 2 8 9 -5 -16 -16 -13
3 5 5 1 -2 3 1 -0 -1 -1 -0 -0 -1 -0 -1 -2 -1 -1 -0 -1 -1 -2 -2 -1 -0 -1 -1 -2 -2 -1 -0 -0 1 1 2 1 1 -6 -0 -1 -1 7 -7
2 1 -0 -1 0 1 2 1 1 -1 0 0 0 -0 1 0 -0 -0 -1 -1 -1 -0 0 -0 -2 -2 -1 -1 -1 0 1 1 0 0 -1 2 3 5 3 6 -5 1 -6
3 0 0 -2 -0 2 1 0 1 -2 0 1 0 1 1 0 -1 -1 -1 -1 -0 -1 -2 -1 -1 -0 0 1 0 0 -0 -1 0 -1 1 -0 -1 -0 3 7 11 -17 -10
2 -1 1 -0 0 2 -0 1 -1 1 1 0 1 -0 0 0 -2 0 -1 -1 -2 -2 -2 -2 -0 1 1 -0 -1 -1 -1 -1 0 -1 -1 -1 -2 -2 -0 1 4 15 -2
3 2 0 -1 1 2 2 1 2 0 -1 1 2 0 -0 -0 0 -2 -1 -2 -1 -1 -1 -0 -0 -1 -1 -1 -2 -1 -1 -1 -2 -1 -2 -3 -1 -3 -0 2 1 2 7
1 -0 1 1 1 3 2 -1 1 -0 -0 1 0 0 -0 -1 -2 -1 -2 -1 -2 -2 -2 -2 -1 -1 -1 -0 0 0 -1 -1 -2 -2 -1 -2 1 0 -0 -1 -1 1 5
-1 -1 -1 -1 0 1 1 2 1 -1 1 1 1 0 -1 -2 -1 -2 -2 -2 -2 -2 -2 -0 -0 0 -1 -1 -0 -0 -0 -2 -3 -3 -3 -2 -1 -3 -1 -1 1 -1 1
2 1 2 1 -0 1 2 0 0 -0 1 1 1 -0 -1 -1 -2 -2 -2 -1 -2 -1 0 -1 -1 -2 -1 -1 1 -1 -2 0 -0 -1 1 -3 -2 -3 -3 1 -3 3 3
-1 1 2 -1 0 2 -0 0 1 1 0 1 0 -1 -0 -1 -2 -2 -1 -1 -2 -1 -1 -0 -2 0 -0 -1 -4 -0 -2 -0 1 0 -1 -2 -3 -3 -1 -1 7 3 2
1 -1 -2 1 2 -0 1 2 2 1 1 0 0 0 -0 -2 -2 -1 -1 -3 -1 0 -1 -2 0 -0 -3 -2 -2 -1 -1 -1 -3 -2 -2 -4 -2 0 2 10 -3 -3 -2
3 2 1 -0 -0 -0 0 1 0 1 1 0 1 -0 -1 -1 -2 -1 -2 0 -1 -2 -0 3 -2 -5 -0 -1 0 2 0 -0 -2 -3 -2 -1 -4 -6 -0 -7 -4 11 22
-4 -2 -2 -2 -0 -1 -1 -1 -1 -1 0 1 0 -1 -1 -1 -1 -1 -1 -3 -2 -0 1 -3 -0 -1 -2 -3 -3 -2 -1 -0 2 0 -4 -4 0 -6 -5 -4 -1 -9 -10
-2 1 -2 1 3 2 3 1 0 1 0 -0 -1 -1 -0 -1 -1 -2 -1 -2 -0 -0 -5 -0 0 -4 -3 -3 -2 -2 2 3 0 -1 -2 0 0 1 3 5 -2 6 2
4 2 4 3 1 0 1 0 0 1 0 0 1 -0 0 -1 -2 -1 -2 1 -2 -3 0 0 -2 -2 -4 -2 -3 0 -3 -3 -3 -2 2 4 -4 -8 3 6 9 -5 -5
4 -4 2 0 3 1 1 1 -0 -0 -0 0 0 0 -3 -1 -1 -2 1 -1 -0 2 -1 -3 -1 -1 -1 -0 -1 -1 -3 -2 -2 2 1 -5 -2 -4 6 11 10 -2 -10
-1 2 3 1 1 0 0 -1 -1 0 0 0 -0 -2 -1 -1 -2 1 -1 -3 -2 -2 1 -2 -3 -1 -0 -0 -1 -2 2 -3 -1 -1 -7 -8 -5 19 0 2 2 0 17
-1 5 -0 1 1 2 0 -1 0 0 -0 -1 -1 -1 -2 -2 1 -2 -3 0 -2 -3 -3 -4 -3 0 -0 -1 -4 -0 0 4 4 1 -5 -1 11 -4 -3 -1 0 0 -1
-1 1 -0 -1 0 -1 1 -1 -0 -0 -1 -0 -1 -2 -0 2 -2 -3 -3 -5 -2 -3 -3 -1 -3 -2 -2 -2 -4 -2 1 -3 3 -3 4 -5 -1 -4 -5 -2 -1 -2 -6
-2 -1 -2 -1 -3 -1 1 1 -0 0 -1 -2 -2 1 2 -3 -1 2 2 0 -3 -3 -3 -2 -1 -2 -3 -5 -4 8 -0 -2 -4 2 -3 3 -1 2 2 -7 -9 -3 3
-0 0 -1 -1 -1 0 -0 0 0 -1 -1 -0 3 1 -3 -2 -1 2 -3 -5 -0 -0 -0 2 3 -3 -3 -1 10 3 5 2 4 2 -7 -9 -6 -6 -6 -6 -0 -0 -2
-1 -1 0 1 0 0 0 -1 -1 -1 1 3 -0 -4 -2 1 -1 -3 -5 3 -1 -1 1 1 2 -2 2 -1 -2 -0 -2 1 -3 -6 -6 -5 -2 -2 -3 -1 -5 -1 -1
Height
1458 1459 1462 1463 1465 1468 1469 1471 1472 1473 1476 1479 1481 1484 1487 1490 1492 1495 1496 1497 1497 1497 1497 1497 1495 1493 1491 1488 1485 1482 1479 1476 1471 1466 1461 1459 1457 1454 1454 1454 1452 1450 1446
1455 1457 1458 1460 1464 1466 1468 1469 1470 1472 1474 1476 1479 1483 1486 1489 1492 1494 1495 1496 1497 1497 1496 1495 1493 1491 1488 1485 1482 1478 1475 1473 1468 1464 1458 1452 1450 1451 1449 1446 1445 1442 1440
1449 1452 1455 1458 1462 1465 1467 1469 1470 1472 1473 1476 1480 1482 1485 1489 1492 1494 1495 1495 1496 1495 1494 1492 1490 1488 1485 1482 1479 1476 1472 1469 1468 1465 1463 1457 1453 1444 1443 1441 1440 1438 1435
1447 1449 1451 1453 1460 1464 1467 1470 1472 1473 1474 1477 1479 1482 1485 1488 1492 1493 1494 1494 1494 1493 1492 1490 1487 1485 1482 1479 1477 1474 1471 1468 1465 1463 1461 1461 1457 1450 1437 1435 1433 1431 1427
1439 1445 1448 1451 1458 1463 1465 1468 1470 1472 1475 1478 1480 1483 1485 1488 1490 1491 1492 1493 1492 1491 1489 1487 1484 1481 1479 1477 1474 1471 1469 1466 1463 1460 1457 1454 1450 1447 1442 1428 1426 1424 1421
1439 1444 1447 1450 1457 1462 1464 1467 1470 1473 1476 1479 1481 1484 1485 1488 1490 1491 1492 1491 1490 1489 1487 1484 1482 1479 1476 1474 1472 1469 1466 1463 1461 1458 1455 1451 1448 1442 1437 1427 1419 1416 1413
1435 1439 1443 1449 1456 1460 1464 1467 1470 1473 1476 1479 1481 1484 1486 1488 1490 1491 1490 1490 1488 1486 1484 1481 1479 1477 1474 1471 1469 1466 1463 1460 1456 1453 1450 1447 1444 1440 1434 1427 1415 1408 1405
1432 1437 1443 1449 1455 1459 1463 1466 1469 1472 1476 1479 1481 1484 1486 1487 1488 1489 1488 1487 1486 1484 1481 1479 1477 1475 1472 1469 1466 1462 1459 1455 1452 1448 1445 1441 1437 1434 1429 1424 1417 1399 1395
1430 1436 1443 1449 1455 1459 1462 1465 1469 1472 1476 1479 1481 1483 1484 1485 1487 1486 1486 1485 1483 1481 1478 1477 1475 1472 1469 1465 1461 1458 1454 1450 1446 1443 1439 1435 1431 1426 1422 1418 1414 1407 1389
1430 1436 1442 1449 1455 1459 1463 1466 1470 1472 1476 1478 1480 1481 1483 1484 1485 1485 1484 1483 1480 1478 1476 1474 1471 1469 1465 1461 1457 1453 1449 1444 1441 1437 1433 1429 1424 1419 1414 1411 1407 1403 1396
1427 1434 1442 1450 1455 1459 1462 1465 1468 1471 1474 1477 1478 1480 1481 1482 1483 1483 1482 1480 1477 1475 1473 1470 1468 1464 1460 1456 1452 1447 1443 1438 1434 1431 1427 1422 1417 1411 1407 1403 1399 1395 1391
1427 1434 1441 1448 1453 1457 1461 1464 1467 1470 1473 1475 1477 1479 1480 1481 1481 1480 1479 1476 1474 1472 1470 1467 1464 1460 1456 1451 1446 1442 1437 1433 1428 1424 1420 1415 1409 1404 1401 1397 1392 1388 1382
1427 1434 1440 1446 1451 1455 1459 1462 1466 1469 1472 1474 1476 1477 1478 1479 1478 1477 1475 1473 1471 1469 1467 1463 1459 1455 1450 1446 1442 1437 1432 1428 1423 1419 1414 1409 1404 1398 1394 1390 1384 1379 1373
1425 1432 1439 1444 1449 1453 1457 1461 1464 1468 1470 1472 1474 1475 1476 1476 1475 1473 1472 1471 1469 1466 1463 1459 1455 1450 1446 1441 1436 1431 1426 1422 1418 1414 1409 1404 1399 1393 1389 1384 1379 1372 1365
1423 1429 1435 1441 1447 1451 1455 1459 1463 1466 1468 1471 1472 1473 1474 1473 1472 1471 1469 1468 1465 1462 1458 1454 1450 1446 1441 1436 1430 1426 1422 1417 1412 1408 1404 1399 1394 1390 1385 1379 1371 1365 1357
1421 1426 1433 1439 1444 1448 1452 1457 1461 1464 1467 1469 1471 1471 1472 1471 1470 1468 1467 1464 1461 1458 1454 1450 1446 1441 1436 1431 1427 1422 1417 1412 1407 1402 1397 1392 1387 1381 1377 1372 1365 1359 1351
1417 1423 1430 1436 1441 1446 1450 1455 1459 1463 1465 1467 1469 1469 1469 1469 1467 1465 1463 1460 1457 1453 1450 1446 1441 1436 1432 1427 1422 1417 1412 1406 1401 1396 1390 1384 1379 1374 1367 1360 1355 1349 1343
1415 1422 1428 1434 1440 1445 1450 1454 1458 1461 1464 1466 1467 1467 1467 1466 1464 1463 1460 1457 1454 1450 1446 1441 1437 1432 1428 1422 1417 1412 1406 1401 1395 1390 1384 1378 1371 1366 1360 1352 1345 1339 1333
1414 1420 1427 1432 1438 1444 1449 1454 1457 1460 1462 1464 1465 1464 1464 1463 1461 1460 1457 1453 1450 1446 1441 1437 1432 1427 1423 1418 1413 1408 1401 1394 1389 1384 1379 1373 1366 1360 1354 1346 1337 1329 1323
1414 1420 1427 1433 1438 1444 1449 1453 1456 1459 1461 1462 1463 1462 1462 1461 1459 1456 1453 1450 1445 1442 1438 1433 1429 1424 1418 1413 1408 1403 1397 1390 1383 1377 1371 1367 1362 1354 1347 1340 1331 1322 1316
1417 1423 1429 1434 1440 1445 1449 1452 1456 1458 1460 1460 1461 1460 1460 1458 1455 1453 1450 1445 1442 1438 1433 1428 1424 1419 1414 1408 1402 1398 1393 1387 1379 1372 1365 1359 1353 1347 1341 1334 1326 1319 1311
1421 1427 1431 1436 1441 1445 1448 1452 1455 1457 1458 1459 1459 1458 1457 1455 1453 1449 1446 1443 1438 1433 1428 1422 1417 1413 1408 1403 1397 1393 1389 1384 1377 1368 1361 1353 1348 1341 1334 1327 1321 1314 1306
1423 1428 1432 1436 1441 1446 1449 1451 1453 1455 1456 1457 1457 1456 1454 1452 1449 1446 1443 1438 1434 1428 1423 1418 1412 1406 1402 1397 1393 1387 1383 1378 1372 1365 1357 1349 1342 1334 1326 1320 1315 1308 1299
1424 1429 1433 1437 1441 1445 1449 1451 1452 1453 1455 1455 1455 1453 1452 1449 1447 1444 1439 1434 1430 1425 1420 1415 1409 1403 1398 1393 1388 1384 1377 1371 1365 1358 1349 1343 1337 1330 1324 1315 1309 1303 1296
1427 1431 1435 1439 1442 1445 1447 1450 1451 1453 1453 1453 1452 1450 1448 1446 1443 1440 1436 1431 1428 1424 1418 1413 1408 1401 1395 1391 1388 1381 1374 1368 1361 1353 1345 1337 1331 1324 1317 1311 1305 1299 1291
1429 1433 1437 1439 1442 1444 1447 1449 1450 1451 1451 1451 1449 1447 1445 1443 1439 1435 1431 1429 1424 1420 1416 1411 1406 1400 1395 1389 1383 1377 1371 1364 1357 1349 1342 1335 1329 1322 1315 1308 1300 1294 1287